Weather History for KMSS - July, 2013

Change the Weather History Date:

Tuesday, July 2, 2013

  Actual Average Record
Temperature  
Mean Temperature 67 °F 68 °F  
Max Temperature 74 °F 79 °F 93 °F (1949)
Min Temperature 59 °F 57 °F 38 °F (1978)
Degree Days  
Heating Degree Days 0 1  
Month to date heating degree days 2  
Since 1 June heating degree days 98  
Since 1 July heating degree days 2  
Cooling Degree Days 2 4  
Month to date cooling degree days 2 8  
Year to date cooling degree days 102 97  
Since 1 June cooling degree days 79 83  
Growing Degree Days 16 (Base 50)    
Moisture  
Dew Point 58 °F    
Average Humidity 83    
Maximum Humidity 93    
Minimum Humidity 72    
Precipitation  
Precipitation T in 0.11 in 0.59 in (1950)
Month to date precipitation 0.04 0.23  
Year to date precipitation 15.96 15.68  
Sea Level Pressure  
Sea Level Pressure 30.11 in    
Wind  
Wind Speed 8 mph (ENE)    
Max Wind Speed 16 mph    
Max Gust Speed 20 mph    
Visibility 4 miles    
Events Rain    
T = Trace of Precipitation, MM = Missing Value Source: NWS Daily Summary

Daily Weather History Graph

Daily Weather History Graph

Search for Another Location

Airport or City:

Trip Planner

Search our weather history database for the weather conditions in past years. The results will help you decide how hot, cold, wet, or windy it might be!

Date:

Astronomy

Jul. 02, 2013 Rise Set
Actual Time 5:17 AM EDT 8:49 PM EDT
Civil Twilight 4:40 AM EDT 9:26 PM EDT
Nautical Twilight 3:51 AM EDT 10:15 PM EDT
Astronomical Twilight 2:47 AM EDT 11:18 PM EDT
Moon 1:26 AM EDT (7/2) 3:54 PM EDT (7/2)
Length of Visible Light 16h 45m
Length of Day
15h 31m
Waning Crescent, 26% of the Moon is Illuminated
Jul 2
Waning Crescent
Jul 8
New
Jul 15
First Quarter
Jul 22
Full
Jul 29
Last Quarter

Hourly Weather History & Observations

Time (EDT) Temp. Dew Point Humidity Pressure Visibility Wind Dir Wind Speed Gust Speed Precip Events Conditions
12:53 AM 62.1 °F 55.9 °F 80% 30.11 in 5.0 mi NE 4.6 mph - 0.00 in   Haze
1:53 AM 62.1 °F 54.0 °F 75% 30.10 in 4.0 mi NE 5.8 mph - N/A   Haze
2:53 AM 62.1 °F 54.0 °F 75% 30.10 in 4.0 mi ENE 5.8 mph - N/A   Haze
3:53 AM 61.0 °F 53.1 °F 75% 30.10 in 4.0 mi ENE 6.9 mph - 0.00 in   Haze
4:53 AM 60.1 °F 53.1 °F 78% 30.11 in 4.0 mi East 4.6 mph - 0.00 in   Haze
5:46 AM 59.0 °F 53.6 °F 82% 30.10 in 2.5 mi East 6.9 mph - 0.00 in Rain Light Rain
5:53 AM 59.0 °F 54.0 °F 83% 30.11 in 2.5 mi East 5.8 mph - 0.00 in   Haze
6:07 AM 59.0 °F 53.6 °F 82% 30.11 in 2.5 mi ENE 6.9 mph - N/A   Haze
6:15 AM 60.8 °F 53.6 °F 77% 30.11 in 2.5 mi ENE 5.8 mph - N/A   Haze
6:48 AM 60.8 °F 53.6 °F 77% 30.11 in 3.0 mi ENE 8.1 mph - N/A   Haze
6:53 AM 60.1 °F 53.1 °F 78% 30.11 in 3.0 mi ENE 9.2 mph - N/A   Haze
7:09 AM 60.8 °F 53.6 °F 77% 30.11 in 2.5 mi East 5.8 mph - N/A   Haze
7:18 AM 60.8 °F 53.6 °F 77% 30.11 in 3.0 mi East 8.1 mph - N/A   Haze
7:53 AM 60.1 °F 53.1 °F 78% 30.12 in 3.0 mi ENE 6.9 mph - N/A   Haze
8:53 AM 62.1 °F 54.0 °F 75% 30.11 in 3.0 mi ENE 11.5 mph - N/A   Haze
10:16 AM 64.4 °F 57.2 °F 77% 30.12 in 3.0 mi ENE 9.2 mph - N/A   Haze
10:27 AM 64.4 °F 57.2 °F 77% 30.12 in 3.0 mi ENE 13.8 mph - N/A   Haze
10:53 AM 66.9 °F 57.9 °F 73% 30.12 in 3.0 mi ENE 11.5 mph - N/A   Haze
11:53 AM 66.9 °F 59.0 °F 76% 30.12 in 4.0 mi NE 11.5 mph - N/A   Haze
12:53 PM 68.0 °F 59.0 °F 73% 30.12 in 3.0 mi NE 15.0 mph - 0.00 in   Haze
1:19 PM 66.2 °F 60.8 °F 83% 30.11 in 2.5 mi NE 8.1 mph - 0.00 in Rain Light Rain
1:28 PM 66.2 °F 60.8 °F 83% 30.11 in 3.0 mi NE 6.9 mph - 0.00 in Rain Light Rain
1:53 PM 68.0 °F 60.1 °F 76% 30.11 in 3.0 mi NE 8.1 mph - 0.00 in   Haze
2:53 PM 69.1 °F 61.0 °F 75% 30.10 in 3.0 mi NE 11.5 mph - N/A   Haze
3:53 PM 72.0 °F 63.0 °F 73% 30.10 in 4.0 mi NE 11.5 mph - N/A   Haze
4:53 PM 73.0 °F 64.0 °F 73% 30.09 in 4.0 mi NE 10.4 mph - N/A   Haze
5:08 PM 73.4 °F 64.4 °F 73% 30.08 in 4.0 mi NE 10.4 mph - N/A   Haze
5:53 PM 71.1 °F 64.0 °F 78% 30.09 in 5.0 mi ENE 9.2 mph - N/A   Haze
6:53 PM 69.1 °F 63.0 °F 81% 30.09 in 5.0 mi NE 11.5 mph - N/A   Haze
7:53 PM 68.0 °F 62.1 °F 81% 30.10 in 4.0 mi NE 9.2 mph - N/A   Haze
8:53 PM 66.9 °F 62.1 °F 84% 30.11 in 4.0 mi ENE 6.9 mph - N/A   Haze
9:53 PM 64.9 °F 61.0 °F 87% 30.11 in 5.0 mi ENE 4.6 mph - N/A   Clear
10:53 PM 64.9 °F 61.0 °F 87% 30.11 in 5.0 mi NE 4.6 mph - N/A   Clear
11:53 PM 63.0 °F 60.1 °F 90% 30.10 in 5.0 mi ENE 4.6 mph - N/A   Clear